www.pogodaiklimat.ru

Погода и климат >> Архив погоды >> Венгрия >> Бекешчаба


ПОГОДА в Бекешчабе

  • Прогноз погоды в Бекешчабе
  • Монитор погоды в Бекешчабе

АРХИВ ПОГОДЫ в Бекешчабе

Время (UTC), дата Ветер
(напр.,м/с)
 
Видим.   Явления Облачность Т
(С)
Тd
(С)
f
(%)
Тe
(С)
Тes
(С)
Комфортность P
(гПа)
Po
(гПа)
Тmin
(С)
Tmax
(С)
R
(мм)
R24
(мм)
S
(см)
13 15.02 С 3 н/о н/о +10.3 -2.0 42 +9 +9 1032.4 1021.5
14 15.02 С 3
{7}
н/о н/о +10.1 -2.2 42 +9 +9 1032.4 1021.5
15 15.02 С 3 25 км 9/1 1300 м
[Sc diur, vesp Ci sp]
+9.1 -1.9 46 +7 +7 1032.5 1021.5
16 15.02 С 1 н/о н/о +7.3 -1.6 53 +7 +7 1032.7 1021.7
17 15.02 С 1 н/о н/о +5.3 -2.1 59 +5 +5 1033.1 1022.0
18 15.02 З 1 20 км 8/0
[Ci sp]
+2.1 -2.4 72 +1 +1 1033.3 1022.1 +10.5
19 15.02 СЗ 1 н/о н/о +2.2 -2.1 73 +1 +1 1033.1 1021.9
20 15.02 З 1 н/о н/о +0.9 -1.7 83 -1 -1 1033.2 1021.9
21 15.02 З 1 15 км 3/0
[Ci sp]
+0.3 -1.9 85 -2 -2 1033.1 1021.8
22 15.02 СЗ 1 н/о н/о -0.5 -2.4 87 -3 -3 1033.0 1021.7
23 15.02 штиль 0 н/о н/о -1.1 -2.5 90 -2 -2 1033.2 1021.8
00 16.02 СЗ 1 10 км 5/0
[Ci sp]
-1.7 -2.7 93 -4 -4 1033.3 1021.9
01 16.02 ЮВ 2 н/о н/о -2.5 -3.9 90 -7 -7 1033.2 1021.8
02 16.02 штиль 0 н/о н/о -2.3 -3.3 93 -4 -4 1033.0 1021.6
03 16.02 Ю 1 н/о н/о -2.8 -3.6 94 -5 -5 1032.6 1021.2
04 16.02 ЮЗ 1 н/о н/о -3.2 -3.9 95 -6 -6 1032.7 1021.2
05 16.02 Ю 1 н/о н/о -3.1 -3.6 96 -6 -6 1032.8 1021.3
06 16.02 штиль 0 5000 м дымка 1/0
[Ci sp]
-3.2 -3.7 96 -4 -4 1033.1 1021.6 -3.9
07 16.02 Ю 1 н/о н/о -1.1 -2.4 91 -3 -3 1033.5 1022.1
08 16.02 ЮЗ 1 н/о н/о +2.1 +0.5 89 0 0 1033.4 1022.2
09 16.02 З 1 н/о н/о +5.5 +2.5 81 +4 +4 1033.4 1022.3
10 16.02 З 2 н/о н/о +7.8 +2.7 70 +6 +6 1033.1 1022.1
11 16.02 З 3 н/о н/о +9.4 +2.5 62 +7 +7 1032.4 1021.5
12 16.02 З 3 12 км 1/0
[Ci sp]
+10.2 +1.3 54 +8 +8 1031.9 1021.0
13 16.02 З 2 н/о н/о +11.2 +1.2 50 +10 +10 1031.5 1020.6
14 16.02 З 2 н/о н/о +11.2 +0.6 48 +10 +10 1031.3 1020.4
15 16.02 ЮЗ 1 н/о н/о +11.2 +0.9 49 +11 +11 1030.8 1019.9
16 16.02 Ю 1 н/о н/о +9.2 +1.1 57 +9 +9 1030.5 1019.6
17 16.02 Ю 1 н/о н/о +6.3 +0.4 66 +6 +6 1031.1 1020.0
18 16.02 Ю 1 12 км 1/0
[Ci sp]
+3.7 -0.1 76 +2 +2 1031.3 1020.1 +11.6
19 16.02 Ю 1 н/о н/о +3.0 +0.1 81 +2 +2 1031.3 1020.1
20 16.02 Ю 1 н/о н/о +1.9 -0.3 85 0 0 1031.3 1020.1
21 16.02 Ю 1 н/о н/о +1.2 -0.7 87 -1 -1 1031.4 1020.1
22 16.02 Ю 1 н/о н/о +0.7 -0.9 89 -1 -1 1031.3 1020.0
23 16.02 ЮВ 1 н/о н/о -0.1 -1.1 93 -2 -2 1031.2 1019.9
00 17.02 штиль 0 н/о н/о -0.5 -1.2 95 -2 -2 1030.9 1019.6
01 17.02 ЮВ 1 н/о н/о -0.9 -1.3 97 -3 -3 1030.7 1019.4
02 17.02 ЮВ 1 н/о н/о -1.3 -1.6 98 -4 -4 1030.2 1018.9
03 17.02 ЮВ 2 н/о н/о -2.1 -2.4 98 -6 -6 1030.1 1018.7
04 17.02 ЮВ 1 н/о н/о -2.6 -2.9 98 -5 -5 1030.0 1018.6
05 17.02 ЮВ 1 н/о н/о -2.6 -2.9 98 -5 -5 1030.0 1018.6
06 17.02 ЮВ 1 1500 м дымка ясно -2.4 -2.8 97 -5 -5 1030.5 1019.1 -2.9
07 17.02 Ю 1 н/о н/о -0.4 -1.2 94 -3 -3 1030.9 1019.6
08 17.02 Ю 1 н/о н/о +2.7 +0.8 87 +1 +1 1031.0 1019.8
09 17.02 Ю 1 н/о н/о +6.2 +2.3 76 +5 +5 1030.8 1019.7
10 17.02 Ю 2 н/о н/о +8.4 +2.8 68 +7 +7 1030.4 1019.4
11 17.02 ЮЗ 2 н/о н/о +10.4 +3.0 60 +9 +9 1029.6 1018.7
12 17.02 Ю 2 н/о н/о +11.7 +2.7 54 +11 +11 1028.6 1017.8
13 17.02 ЮЗ 2 н/о н/о +12.5 +2.4 50 +12 +12 1028.0 1017.2
14 17.02 ЮЗ 1 н/о н/о +12.8 +2.1 48 +13 +13 1027.6 1016.8
15 17.02 ЮЗ 1 н/о н/о +12.6 +2.2 49 +13 +13 1027.1 1016.3
16 17.02 штиль 0 н/о н/о +10.9 +1.4 52 +11 +11 1026.9 1016.1
17 17.02 ЮВ 1 н/о н/о +7.0 +1.3 67 +6 +6 1027.4 1016.4
18 17.02 Ю 1 12 км 1/0
[Ci sp]
+5.0 +0.9 75 +4 +4 1027.5 1016.4 +13.1
19 17.02 Ю 2 н/о н/о +3.8 +0.8 81 +1 +1 1027.3 1016.2
20 17.02 ЮВ 1 н/о н/о +2.1 0.0 86 0 0 1027.7 1016.5
21 17.02 Ю 1 н/о н/о +1.7 -0.1 88 -0 -0 1027.7 1016.5
22 17.02 Ю 1 н/о н/о +1.2 +0.2 93 -1 -1 1027.6 1016.4
23 17.02 ЮВ 1 н/о н/о +0.1 -0.6 95 -2 -2 1027.5 1016.2
00 18.02 ЮВ 1 н/о н/о -0.5 -1.1 96 -3 -3 1027.4 1016.1
01 18.02 ЮВ 1 н/о н/о -1.1 -1.5 97 -3 -3 1027.2 1015.9
02 18.02 ЮВ 1 н/о н/о -1.0 -1.3 98 -3 -3 1026.8 1015.5
03 18.02 ЮВ 1 н/о н/о -2.4 -2.7 98 -5 -5 1026.7 1015.3
04 18.02 ЮВ 1 н/о н/о -2.3 -2.4 99 -5 -5 1026.4 1015.1
05 18.02 штиль 0 н/о н/о -3.2 -3.5 98 -5 -5 1026.6 1015.2
06 18.02 ЮВ 1 1500 м местами туман поземный 1/0
[Ci sp]
-3.2 -3.5 98 -6 -6 1026.9 1015.5 -3.4
07 18.02 ЮВ 2 н/о н/о +0.6 -0.3 94 -3 -3 1027.0 1015.8
08 18.02 Ю 1 н/о н/о +4.2 +1.7 84 +3 +3 1026.9 1015.8
09 18.02 ЮВ 1 7000 м 1/0
[Ci sp]
+7.7 +3.2 73 +7 +7 1026.5 1015.6
10 18.02 Ю 2 н/о н/о +10.7 +3.0 59 +10 +10 1026.4 1015.6
11 18.02 Ю 1 н/о н/о +12.6 +2.2 49 +13 +13 1025.8 1015.0
12 18.02 З 2 12 км 1/0
[Ci fib]
+13.2 +1.5 45 +13 +13 1025.0 1014.3
13 18.02 СЗ 1 н/о н/о +14.0 +1.3 42 +15 +15 1024.3 1013.6
14 18.02 З 1 н/о н/о +14.4 +1.7 42 +15 +15 1023.9 1013.2
15 18.02 С 1 15 км 1/0
[Ci fib]
+13.6 +1.3 43 +14 +14 1023.5 1012.8
16 18.02 С 1 н/о н/о +12.1 +0.8 46 +12 +12 1023.1 1012.4
17 18.02 штиль 0 н/о н/о +7.6 +0.3 60 +7 +7 1023.5 1012.6
18 18.02 В 1 12 км 3/0
[Ci sp]
+5.3 -0.1 68 +4 +4 1023.8 1012.8 +14.7
19 18.02 В 1 н/о н/о +4.0 -0.2 74 +3 +3 1023.8 1012.7
20 18.02 В 1 н/о н/о +2.9 -0.6 78 +1 +1 1023.7 1012.6
21 18.02 В 1 10 км 3/0
[Ci sp]
+2.2 -0.4 83 +1 +1 1023.5 1012.4
22 18.02 В 1 н/о н/о +0.7 -0.9 89 -1 -1 1023.4 1012.2
23 18.02 штиль 0 н/о н/о -0.2 -1.3 92 -1 -1 1023.4 1012.2
00 19.02 ЮВ 1 6000 м 1/0
[Ci sp]
-1.1 -1.9 94 -3 -3 1023.3 1012.0
01 19.02 Ю 2 н/о н/о -1.1 -1.8 95 -5 -5 1023.1 1011.8
02 19.02 В 1 н/о н/о -2.3 -2.7 97 -5 -5 1022.6 1011.3
03 19.02 В 2 н/о н/о -2.0 -2.4 97 -6 -6 1022.2 1010.9
04 19.02 В 2 н/о н/о -2.4 -2.7 98 -7 -7 1021.9 1010.6
05 19.02 штиль 0 н/о н/о -3.4 -3.8 97 -5 -5 1021.9 1010.6
06 19.02 штиль 0 800 м туман 6/0
[Ac lent Ci fib]
-3.4 -3.8 97 -5 -5 1022.1 1010.8 -3.8
07 19.02 В 1 н/о н/о +0.6 -0.4 93 -1 -1 1022.2 1011.0
08 19.02 штиль 0 н/о н/о +4.6 +1.6 81 +4 +4 1022.1 1011.1
09 19.02 штиль 0 5000 м дымка {туман} 8/0
[Ci fib]
+8.3 +2.3 66 +8 +8 1022.3 1011.4
10 19.02 Ю 2 н/о н/о +10.8 +2.1 55 +10 +10 1021.8 1011.0
11 19.02 Ю 3 н/о н/о +11.8 +3.1 55 +10 +10 1021.0 1010.3
12 19.02 ЮЗ 3 7000 м {туман} 9/0
[Ci sp]
+13.8 +3.3 49 +13 +13 1020.2 1009.5
13 19.02 Ю 3 н/о н/о +14.5 +2.7 45 +14 +14 1019.5 1008.9
14 19.02 ЮЗ 3 н/о н/о +14.9 +2.1 42 +14 +14 1019.0 1008.4
15 19.02 ЮЗ 2 12 км 9/0
[Cs]
+13.9 +1.5 43 +14 +14 1018.8 1008.2
16 19.02 штиль 0 н/о н/о +12.3 +1.6 48 +12 +12 1018.5 1007.8
17 19.02 штиль 0 н/о н/о +8.5 +1.2 60 +8 +8 1018.7 1007.9
18 19.02 штиль 0 10 км 1/0
[Ci sp]
+5.5 +1.4 75 +5 +5 1019.0 1008.0 +15.1
19 19.02 штиль 0 н/о н/о +4.2 +1.1 80 +3 +3 1019.0 1008.0
20 19.02 штиль 0 н/о н/о +3.5 +1.4 86 +2 +2 1019.1 1008.1
21 19.02 штиль 0 н/о н/о +1.9 +0.7 92 +1 +1 1019.0 1007.9
22 19.02 Ю 1 н/о н/о +1.0 +0.4 96 -1 -1 1018.9 1007.8
23 19.02 ЮЗ 1 н/о н/о +0.4 0.0 97 -2 -2 1019.2 1008.0
00 20.02 Ю 1 н/о н/о +0.7 +0.3 97 -1 -1 1018.9 1007.8
01 20.02 ЮЗ 1 н/о н/о +0.3 -0.7 93 -2 -2 1019.1 1007.9
02 20.02 З 2 н/о н/о -0.3 -1.3 93 -4 -4 1019.2 1008.0
03 20.02 ЮЗ 1 н/о н/о -0.3 -1.0 95 -3 -3 1019.1 1007.9
04 20.02 ЮЗ 1 н/о н/о -1.2 -2.2 93 -3 -3 1019.4 1008.2
05 20.02 ЮЗ 2 н/о н/о +0.6 -1.8 84 -3 -3 1019.5 1008.3
06 20.02 ЮЗ 3 8000 м 5/0
[Ac lent Ci sp]
+1.1 -1.3 84 -3 -3 1019.9 1008.8 -1.5
07 20.02 З 3 н/о н/о +3.4 -0.1 78 -0 -0 1020.5 1009.4
08 20.02 СЗ 4 н/о н/о +6.6 +1.9 72 +3 +3 1021.0 1010.1
09 20.02 СЗ 7
{11}
12 км 1/0
[Ac trans]
+8.9 +2.2 63 +5 +5 1021.3 1010.5
10 20.02 СЗ 5
{9}
н/о н/о +10.9 +2.5 56 +8 +8 1021.7 1010.9
11 20.02 СЗ 5
{8}
н/о н/о +11.1 +1.9 53 +9 +9 1021.5 1010.7
12 20.02 С 3
{7}
15 км 8/1 1080 м
[Cu hum Ci fib]
+11.3 +1.3 50 +10 +10 1021.6 1010.8
13 20.02 СЗ 5
{8}
н/о н/о +12.3 +0.7 45 +10 +10 1021.5 1010.8
14 20.02 СЗ 4
{7}
н/о н/о +12.1 -1.1 40 +11 +11 1021.3 1010.6
15 20.02 СЗ 7
{10}
15 км 8/1 1500 м
[Cu med, cong Ci sp]
+11.0 -3.1 37 +8 +8 1021.5 1010.7
16 20.02 СЗ 5
{10}
н/о н/о +9.3 -2.9 42 +7 +7 1021.8 1011.0
17 20.02 З 2 н/о н/о +7.2 -2.8 49 +6 +6 1022.5 1011.6
18 20.02 СЗ 4 15 км 9/0
[Ci sp]
+5.3 -2.1 59 +2 +2 1023.0 1012.0 +12.7
19 20.02 З 4 н/о н/о +4.8 -1.9 62 +1 +1 1023.4 1012.4
20 20.02 З 4 н/о н/о +3.7 -2.1 66 -0 -0 1024.1 1013.0
21 20.02 СЗ 3 н/о н/о +2.1 -2.6 71 -2 -2 1024.3 1013.2
22 20.02 СЗ 2 н/о н/о -0.3 -3.3 80 -4 -4 1024.8 1013.6
23 20.02 СЗ 2 н/о н/о +0.1 -2.6 82 -3 -3 1025.4 1014.2
00 21.02 СЗ 1 н/о н/о -0.1 -2.8 82 -2 -2 1025.5 1014.3
01 21.02 З 2 н/о н/о -0.6 -2.6 86 -4 -4 1025.9 1014.6
02 21.02 З 2 н/о н/о -1.9 -3.8 87 -6 -6 1025.9 1014.6
03 21.02 СЗ 2 н/о н/о -2.1 -3.4 91 -6 -6 1026.3 1015.0
04 21.02 СЗ 2 н/о н/о -2.1 -3.7 89 -6 -6 1026.8 1015.5
05 21.02 СЗ 1 н/о н/о -1.6 -4.1 83 -4 -4 1027.0 1015.7
06 21.02 СЗ 2 12 км 6/0
[Ac trans Cc]
-1.9 -4.4 83 -6 -6 1027.3 1016.0 -2.9
07 21.02 СЗ 1 н/о н/о +0.3 -2.4 82 -2 -2 1027.8 1016.5
08 21.02 В 1 н/о н/о +4.2 -1.6 66 +3 +3 1027.8 1016.7
09 21.02 Ю 1 15 км 10/0
[Cs]
+6.7 -1.0 58 +6 +6 1028.0 1017.0
10 21.02 ЮЗ 2 н/о н/о +8.1 -0.4 55 +7 +7 1027.9 1017.0
11 21.02 ЮЗ 2 н/о н/о +10.3 -2.4 41 +9 +9 1027.1 1016.2
12 21.02 ЮЗ 3 18 км 9/0
[Cs]
+11.0 -2.8 38 +10 +10 1026.5 1015.7
13 21.02 ЮЗ 2 н/о н/о +11.0 -3.1 37 +10 +10 1026.0 1015.2
14 21.02 З 3 н/о н/о +11.1 -3.8 35 +10 +10 1025.7 1014.9
15 21.02 СЗ 1 30 км 9/1 1500 м
[Cu med, cong Ac As Ci sp]
+10.0 -3.3 39 +10 +10 1025.3 1014.5
16 21.02 Ю 1 н/о н/о +9.7 -3.2 40 +10 +10 1024.9 1014.0
17 21.02 Ю 2 н/о н/о +7.7 -3.5 45 +6 +6 1024.8 1013.9
18 21.02 Ю 2 22 км 8/0
[Ac trans Ci sp]
+6.7 -2.7 51 +5 +5 1024.6 1013.6 +11.5
19 21.02 Ю 3 н/о н/о +5.3 -3.0 55 +2 +2 1024.2 1013.2
20 21.02 Ю 3 н/о н/о +4.1 -2.3 63 +1 +1 1024.1 1013.0
21 21.02 ЮЗ 2 н/о н/о +4.1 -1.5 67 +2 +2 1023.7 1012.6
22 21.02 Ю 1 н/о н/о +4.3 -0.3 72 +3 +3 1023.1 1012.1
23 21.02 З 5
{7}
н/о н/о +6.6 +1.1 68 +3 +3 1022.4 1011.5
00 22.02 З 5
{8}
н/о н/о +6.4 +3.4 81 +2 +2 1022.1 1011.1
01 22.02 З 5
{8}
н/о н/о +5.9 +4.7 92 +1 +1 1021.4 1010.4
02 22.02 З 4 н/о н/о +5.8 +5.1 95 +2 +2 1020.6 1009.6
03 22.02 З 4
{7}
н/о н/о +5.8 +5.1 95 +2 +2 1020.2 1009.2
04 22.02 СЗ 2 н/о н/о +5.3 +4.9 97 +3 +3 1019.7 1008.7
05 22.02 З 2 н/о н/о +5.1 +4.8 98 +2 +2 1019.0 1008.0
06 22.02 СЗ 2 5000 м слаб. дождь 10/1 900 м
[Sc As op]
+4.8 +4.7 99 +2 +2 1019.0 1008.0 +3.4 3
07 22.02 СЗ 3 н/о н/о +5.7 +5.4 98 +2 +2 1019.1 1008.2
08 22.02 С 3 н/о н/о +6.3 +5.4 94 +3 +3 1019.0 1008.1
09 22.02 СЗ 2 н/о н/о +6.8 +5.6 92 +4 +4 1019.0 1008.1
10 22.02 С 3 н/о н/о +7.8 +5.6 86 +5 +5 1019.2 1008.3
11 22.02 С 4 н/о н/о +7.8 +5.4 85 +4 +4 1019.3 1008.4
12 22.02
{18}
н/о н/о +6.1 +4.3 88 1019.5 1008.6 0.2

 

Местоположение метеостанции Бекешчаба (Венгрия): широта 46.68 долгота 21.17 высота над уровнем моря 90 м.

В архиве по умолчанию представлена погода в Бекешчабе за последнюю неделю. Архивные данные за месяц целиком и за предыдущие месяцы, начиная с января 2011 года, Вы можете получить, выбрав интересующий диапазон дат из раскрывающегося списка и нажав кнопку "Ввод!".


*Определитесь, кто Вы:
робот инопланетянин человек

Внимание! Время в таблицах - всемирное. Для получения местного времени необходимо прибавить поправку, которая равна 1 ч.

Смотрите также архив погоды в соседних городах и на ближайших метеорологических станциях:

Погода в Кишинеу-Криш (Румыния) (32 км)
Погода в Шири (Румыния) (60 км)
Погода в Араде (Румыния) (63 км)
Погода в Орадя (Румыния) (68 км)
Погода в Холоде (Румыния) (73 км)
Погода в Думбравита де Кодру (Румыния) (77 км)
Погода в Сынниколау-Маре (Румыния) (80 км)
Погода в Сольноке (Венгрия) (87 км)
Погода в Дебрецене (Венгрия) (95 км)
Погода в Сегеде (Венгрия) (95 км)

Пояснения к столбцам:

Ветер - указаны скорость ветра в м/с - средняя за 10 мин, порывы в срок и между сроками (в фигурных скобках) и направление, откуда дует ветер: С - северный, СВ - северо-восточный, В - восточный, ЮВ - юго-восточный, Ю - южный, ЮЗ - юго-западный, З - западный, СЗ - северо-западный.
Видимость - горизонтальная дальность видимости в метрах или километрах. При видимости от 1 до 10 км при отсутствии осадков обычно наблюдается дымка, при ухудшении видимости до 1 км и менее - туман. В сухую погоду видимость может ухудшаться дымом, пылью или мглою.
Явления - указаны атмосферные явления, наблюдавшиеся в срок или в последний час перед сроком; фигурными скобками обозначены явления, наблюдавшиеся между сроками (за 1-3 часа до срока); квадратными скобками обозначены град или гололедные отложения с указанием их диаметра в мм.
Облачность - указаны через наклонную черту общая и нижняя облачность в баллах и высота нижней границы облаков в метрах; квадратными скобками обозначены формы облаков: Ci - перистые, Cs - перисто-слоистые, Cc - перисто-кучевые, Ac - высококучевые, As - высокослоистые, Sc - слоисто-кучевые, Ns - слоисто-дождевые, Cu - кучевые, Cb - кучево-дождевые. Подробнее классификацию облаков см. в Атласе облаков (PDF).
T - Температура воздуха - температура, измеренная на высоте 2 м над землей.
Td - Температура точки росы - температура, при понижении до которой содержащийся в воздухе водяной пар достигнет насыщения.
f - Относительная влажность воздуха - влажноcть воздуха, измеренная на высоте 2 м над землей.
Te - Эффективная температура - температура, которую ощущает одетый по сезону человек в тени. Характеристика душности погоды. При расчете учитывается влияние влажности воздуха и скорости ветра на теплоощущения человека.
Tes - Эффективная температура на солнце - температура, которую ощущает человек, с поправкой на солнечный нагрев. Характеристика знойности погоды. Зависит от высоты солнца над горизонтом, облачности и скорости ветра. Ночью, в пасмурную погоду, а также при ветре 12 м/с и более поправка равна нулю.
P - Атмосферное давление - приведенное к уровню моря атмосферное давление.
Po - Атмосферное давление - измеренное на уровне метеостанции атмосферное давление.
Tmin - Минимальная температура - минимум температуры воздуха на высоте 2 м над землей.
Tmax - Максимальная температура - максимум температуры воздуха на высоте 2 м над землей.
R - Количество осадков - Количество выпавших осадков за период времени, мм. При наведении курсора мыши на число - период времени, за который выпало указанное количество осадков.
R24 - Количество осадков - Количество выпавших осадков за 24 часа, мм.
S - Снежный покров - Высота снежного покрова, см. При наведении курсора мыши на число - состояние снежного покрова и степень покрытия местности в баллах.